User: anonymous   Login
Location: Notre Dame Regional High School Observatory
(37.3056°N, 89.6097°W)
Time: 10:02:51
(UTC-06:00)
Language:

ATLAS 3B R/B - Orbit

View from above orbital plane
View from above orbital plane
View from above satellite
View from above satellite

Ground track
Ground track

The orbit data is extracted from the following two-line orbital elements,

1 28538U 05004B   15054.73950114 0.00000050  00000-0  77466-4 0    02
2 28538  63.8210 265.8610 0202000 233.9238 126.0762 13.43051226    01
Epoch (UTC): 23 February 2015 17:44:52
Eccentricity: 0.0202000
inclination: 63.8210°
perigee height: 947 km
apogee height: 1249 km
right ascension of ascending node: 265.8610°
argument of perigee: 233.9238°
revolutions per day: 13.43051226
mean anomaly at epoch: 126.0762°
orbit number at epoch: 0

The dashed part of the orbit path shows where the satellite is in the earth's shadow,  

DLR